Regional Weather Roundup
Issued by NWS

Home | Current Version | Previous Version | Text Only | Print | Product List | Glossary Off
Versions: 1 2 3 4 5 6 7 8 9 10 11 12 13 14 15 16 17 18 19 20 21 22 23 24 25 26 27 28 29 30 31 32 33 34 35 36 37 38 39 40 41 42 43 44 45 46 47 48 49 50

000
ASUS43 KFSD 220210
RWRSD

WEATHER ROUNDUP FOR SOUTH DAKOTA
NATIONAL WEATHER SERVICE SIOUX FALLS SD
900 PM CDT SUN SEP 21 2014

NOTE: "FAIR" INDICATES FEW OR NO CLOUDS BELOW 12,000 FEET WITH NO
SIGNIFICANT WEATHER AND/OR OBSTRUCTIONS TO VISIBILITY.


SDZ001>005-009-010-012>017-220300-
NORTHWEST AND NORTH CENTRAL SOUTH DAKOTA

CITY           SKY/WX    TMP DP  RH WIND       PRES   REMARKS
BUFFALO          N/A     60  36  40 E12       30.17R
MOBRIDGE       CLEAR     53  46  77 E5        30.21R
$$

SDZ012>016-024>037-041>051-057-063-072>074-220300-
SOUTHWEST AND SOUTH CENTRAL SOUTH DAKOTA

CITY           SKY/WX    TMP DP  RH WIND       PRES   REMARKS
RAPID CTY ARPT CLEAR     59  38  45 E6        30.25S
PIERRE         CLEAR     55  42  61 NE6       30.23R
CUSTER         PTCLDY    56  34  43 SE5       30.35R
ELLSWORTH AFB  CLEAR     60  38  44 S8        30.25S
PHILIP         CLEAR     56  39  53 E5        30.24R
PINE RIDGE     PTCLDY    54  42  64 E6        30.27S
WINNER         FAIR      62  41  46 SE5       30.25S
$$

SDZ004>011-016>023-039-040-220300-
NORTHEAST SOUTH DAKOTA

CITY           SKY/WX    TMP DP  RH WIND       PRES   REMARKS
ABERDEEN       CLEAR     53  47  79 CALM      30.23R
WATERTOWN      CLEAR     54  46  74 CALM      30.25R
SISSETON         N/A     51  49  92 W3        30.22R
$$

SDZ017-020-022-023-036>040-048>070-220300-
SOUTHEAST SOUTH DAKOTA

CITY           SKY/WX    TMP DP  RH WIND       PRES   REMARKS
SIOUX FALLS    CLEAR     57  46  66 N3        30.25R
HURON          CLEAR     56  46  69 CALM      30.24R
CHAMBERLAIN    CLEAR     56  44  65 SE3       30.25R
MITCHELL       CLEAR     57  48  72 CALM      30.25R
YANKTON        CLEAR     55  46  71 N5        30.25S
$$

ABBREVIATIONS USED IN REMARKS
   TC - TEMPERATURE IN CELSIUS
  WCI - WIND CHILL INDEX
   HX - HEAT INDEX
  VSB - VISIBILITY




USA.gov is the U.S. government's official web portal to all federal, state and local government web resources and services.